map of GLA home
GLA - Airport
Location
City:  Glasgow, Renfrewshire, Scotland, United Kingdom
Name:Abbotsinch
ICAO:EGPF
IATA:GLA

Details
Type:Airport (Aerodrome, Airfield)
Use:Public/Civil, International (customs port of entry)
Latitude:5552'19"N (55.871944)
Longitude:425'59"W (-4.433055)
Elevation:26 ft (8 m)
Variation:2.66W (WMM2015 magnetic declination)
0.17 annual change
Runways:1
Longest:8743 × 151 ft (2665 × 46 m), paved

Time
Time Zone:UTC+0 (DST+1)
Local Time:

Weather
METAR:EGPF 210620Z AUTO 04004KT 9999 BKN024 12/08 Q1017
TAF:EGPF 210507Z 2106/2206 10008KT 9999 FEW035 PROB40
TEMPO 2106/2206 BKN009 PROB40
TEMPO 2202/2206 6000 -RADZ

Related Locations
Nearby:
Farthest:SZS: 11733 mi / 18883 km
Ryan's Creek, Stewart Island, STL, NZ

Find:

   beyond  
but within

Other Information
Maps:
NOTAMs:
Links:
Sources:

  
flag of United Kingdom
flag of Scotland
  

Airport Diagram

Airport diagram for GLA

Airport diagram PDF

Sectional Chart

Flight Planning
at skyvector.com

Satellite Image

Google Maps Satellite view

 

Copyright © 2004-2018 Karl L. Swartz. All rights reserved.
The Great Circle Mapper name and logo are trademarks of the Great Circle Mapper.
All other trademarks mentioned herein belong to their respective owners.
Please see credits for attibutions and further copyright information.

  Follow gcmap on Facebook Follow gcmap on Twitter Follow gcmap on Google+ GCmap on LinkedIn

hCard Microformat

Geo Microformat